Year,Month,Day,Hour,Minute,Value (Times are PST for windspeed in km/hr)
2011,11,22,00,00,19.30
2011,11,22,00,01,19.10
2011,11,22,00,02,28.60
2011,11,22,00,03,21.80
2011,11,22,00,04,23.50
2011,11,22,00,05,26.50
2011,11,22,00,06,16.70
2011,11,22,00,07,20.90
2011,11,22,00,08,23.10
2011,11,22,00,09,21.50
2011,11,22,00,10,23.30
2011,11,22,00,11,19.60
2011,11,22,00,12,31.70
2011,11,22,00,13,24.40
2011,11,22,00,14,23.30
2011,11,22,00,15,15.20
2011,11,22,00,16,17.40
2011,11,22,00,17,15.10
2011,11,22,00,18,8.00
2011,11,22,00,19,10.70
2011,11,22,00,20,21.50
2011,11,22,00,21,29.40
2011,11,22,00,22,18.80
2011,11,22,00,23,22.80
2011,11,22,00,24,18.90
2011,11,22,00,25,27.80
2011,11,22,00,26,17.80
2011,11,22,00,27,22.80
2011,11,22,00,28,23.90
2011,11,22,00,29,22.10
2011,11,22,00,30,30.20
2011,11,22,00,31,36.60
2011,11,22,00,32,26.20
2011,11,22,00,33,24.40
2011,11,22,00,34,33.90
2011,11,22,00,35,28.10
2011,11,22,00,36,28.10
2011,11,22,00,37,20.20
2011,11,22,00,38,20.20
2011,11,22,00,39,17.40
2011,11,22,00,40,19.50
2011,11,22,00,41,20.50
2011,11,22,00,42,16.60
2011,11,22,00,43,21.30
2011,11,22,00,44,35.50
2011,11,22,00,45,30.00
2011,11,22,00,46,26.20
2011,11,22,00,47,24.40
2011,11,22,00,48,20.90
2011,11,22,00,49,24.80
2011,11,22,00,50,37.80
2011,11,22,00,51,23.90
2011,11,22,00,52,23.40
2011,11,22,00,53,28.90
2011,11,22,00,54,18.80
2011,11,22,00,55,18.90
2011,11,22,00,56,30.90
2011,11,22,00,57,19.60
2011,11,22,00,58,15.30
2011,11,22,00,59,24.50
2011,11,22,01,00,23.20
2011,11,22,01,01,25.20
2011,11,22,01,02,19.30
2011,11,22,01,03,19.70
2011,11,22,01,04,22.50
2011,11,22,01,05,38.80
2011,11,22,01,06,31.60
2011,11,22,01,07,15.20
2011,11,22,01,08,23.20
2011,11,22,01,09,24.70
2011,11,22,01,10,25.00
2011,11,22,01,11,28.00
2011,11,22,01,12,20.50
2011,11,22,01,13,20.20
2011,11,22,01,14,20.80
2011,11,22,01,15,19.00
2011,11,22,01,16,16.80
2011,11,22,01,17,9.50
2011,11,22,01,18,20.10
2011,11,22,01,19,22.10
2011,11,22,01,20,15.60
2011,11,22,01,21,26.90
2011,11,22,01,22,23.50
2011,11,22,01,23,21.30
2011,11,22,01,24,16.20
2011,11,22,01,25,22.70
2011,11,22,01,26,17.60
2011,11,22,01,27,18.20
2011,11,22,01,28,14.50
2011,11,22,01,29,14.50
2011,11,22,01,30,14.50
2011,11,22,01,31,14.50
2011,11,22,01,32,15.50
2011,11,22,01,33,20.50
2011,11,22,01,34,23.40
2011,11,22,01,35,16.90
2011,11,22,01,36,17.90
2011,11,22,01,37,14.60
2011,11,22,01,38,15.80
2011,11,22,01,39,12.10
2011,11,22,01,40,15.20
2011,11,22,01,41,13.80
2011,11,22,01,42,27.60
2011,11,22,01,43,27.00
2011,11,22,01,44,16.40
2011,11,22,01,45,19.50
2011,11,22,01,46,23.50
2011,11,22,01,47,15.60
2011,11,22,01,48,19.50
2011,11,22,01,49,16.50
2011,11,22,01,50,14.90
2011,11,22,01,51,26.30
2011,11,22,01,52,26.70
2011,11,22,01,53,21.90
2011,11,22,01,54,12.30
2011,11,22,01,55,11.90
2011,11,22,01,56,15.20
2011,11,22,01,57,12.80
2011,11,22,01,58,12.10
2011,11,22,01,59,11.40
2011,11,22,02,00,11.40
2011,11,22,02,01,14.20
2011,11,22,02,02,12.90
2011,11,22,02,03,9.40
2011,11,22,02,04,8.30
2011,11,22,02,05,9.00
2011,11,22,02,06,9.70
2011,11,22,02,07,11.30
2011,11,22,02,08,13.50
2011,11,22,02,09,10.20
2011,11,22,02,10,11.00
2011,11,22,02,11,10.30
2011,11,22,02,12,9.20
2011,11,22,02,13,10.50
2011,11,22,02,14,12.70
2011,11,22,02,15,9.30
2011,11,22,02,16,11.00
2011,11,22,02,17,11.50
2011,11,22,02,18,9.00
2011,11,22,02,19,11.20
2011,11,22,02,20,10.00
2011,11,22,02,21,8.00
2011,11,22,02,22,7.50
2011,11,22,02,23,8.10
2011,11,22,02,24,13.60
2011,11,22,02,25,11.60
2011,11,22,02,26,11.60
2011,11,22,02,27,9.70
2011,11,22,02,28,14.40
2011,11,22,02,29,14.70
2011,11,22,02,30,9.60
2011,11,22,02,31,11.20
2011,11,22,02,32,5.70
2011,11,22,02,33,5.40
2011,11,22,02,34,1.00
2011,11,22,02,35,5.00
2011,11,22,02,36,7.10
2011,11,22,02,37,4.20
2011,11,22,02,38,3.30
2011,11,22,02,39,4.10
2011,11,22,02,40,4.40
2011,11,22,02,41,2.30
2011,11,22,02,42,0.40
2011,11,22,02,43,4.70
2011,11,22,02,44,3.90
2011,11,22,02,45,4.70
2011,11,22,02,46,1.50
2011,11,22,02,47,1.90
2011,11,22,02,48,3.50
2011,11,22,02,49,8.40
2011,11,22,02,50,7.50
2011,11,22,02,51,4.70
2011,11,22,02,52,4.70
2011,11,22,02,53,3.30
2011,11,22,02,54,3.40
2011,11,22,02,55,4.20
2011,11,22,02,56,0.70
2011,11,22,02,57,0.10
2011,11,22,02,58,0.70
2011,11,22,02,59,0.20
2011,11,22,03,00,2.80
2011,11,22,03,01,2.30
2011,11,22,03,02,3.50
2011,11,22,03,03,7.10
2011,11,22,03,04,13.30
2011,11,22,03,05,9.50
2011,11,22,03,06,4.10
2011,11,22,03,07,8.70
2011,11,22,03,08,7.00
2011,11,22,03,09,4.90
2011,11,22,03,10,2.50
2011,11,22,03,11,6.40
2011,11,22,03,12,7.80
2011,11,22,03,13,9.60
2011,11,22,03,14,7.30
2011,11,22,03,15,3.40
2011,11,22,03,16,3.50
2011,11,22,03,17,3.80
2011,11,22,03,18,7.50
2011,11,22,03,19,9.00
2011,11,22,03,20,7.90
2011,11,22,03,21,7.10
2011,11,22,03,22,8.10
2011,11,22,03,23,6.10
2011,11,22,03,24,6.80
2011,11,22,03,25,7.10
2011,11,22,03,26,4.30
2011,11,22,03,27,4.80
2011,11,22,03,28,6.10
2011,11,22,03,29,4.90
2011,11,22,03,30,5.10
2011,11,22,03,31,2.70
2011,11,22,03,32,2.40
2011,11,22,03,33,7.80
2011,11,22,03,34,8.70
2011,11,22,03,35,10.80
2011,11,22,03,36,8.30
2011,11,22,03,37,6.00
2011,11,22,03,38,4.70
2011,11,22,03,39,11.00
2011,11,22,03,40,7.90
2011,11,22,03,41,8.30
2011,11,22,03,42,7.60
2011,11,22,03,43,9.00
2011,11,22,03,44,10.70
2011,11,22,03,45,9.30
2011,11,22,03,46,11.80
2011,11,22,03,47,22.50
2011,11,22,03,48,17.60
2011,11,22,03,49,18.80
2011,11,22,03,50,15.80
2011,11,22,03,51,12.00
2011,11,22,03,52,15.40
2011,11,22,03,53,12.60
2011,11,22,03,54,13.50
2011,11,22,03,55,13.30
2011,11,22,03,56,10.10
2011,11,22,03,57,5.90
2011,11,22,03,58,7.50
2011,11,22,03,59,9.00
2011,11,22,04,00,6.40
2011,11,22,04,01,7.00
2011,11,22,04,02,9.00
2011,11,22,04,03,7.90
2011,11,22,04,04,5.50
2011,11,22,04,05,6.40
2011,11,22,04,06,3.20
2011,11,22,04,07,3.20
2011,11,22,04,08,7.00
2011,11,22,04,09,19.10
2011,11,22,04,10,14.50
2011,11,22,04,11,12.70
2011,11,22,04,12,10.50
2011,11,22,04,13,14.90
2011,11,22,04,14,8.20
2011,11,22,04,15,4.10
2011,11,22,04,16,6.00
2011,11,22,04,17,1.80
2011,11,22,04,18,8.50
2011,11,22,04,19,4.10
2011,11,22,04,20,2.80
2011,11,22,04,21,4.20
2011,11,22,04,22,2.60
2011,11,22,04,23,5.40
2011,11,22,04,24,10.00
2011,11,22,04,25,6.40
2011,11,22,04,26,4.40
2011,11,22,04,27,1.80
2011,11,22,04,28,0.80
2011,11,22,04,29,1.30
2011,11,22,04,30,0.20
2011,11,22,04,31,0.00
2011,11,22,04,32,0.00
2011,11,22,04,33,2.50
2011,11,22,04,34,2.30
2011,11,22,04,35,5.00
2011,11,22,04,36,6.10
2011,11,22,04,37,8.60
2011,11,22,04,38,7.70
2011,11,22,04,39,5.70
2011,11,22,04,40,6.40
2011,11,22,04,41,3.40
2011,11,22,04,42,0.20
2011,11,22,04,43,0.00
2011,11,22,04,44,0.10
2011,11,22,04,45,0.00
2011,11,22,04,46,0.10
2011,11,22,04,47,0.10
2011,11,22,04,48,0.00
2011,11,22,04,49,0.00
2011,11,22,04,50,0.00
2011,11,22,04,51,0.70
2011,11,22,04,52,3.00
2011,11,22,04,53,3.90
2011,11,22,04,54,7.00
2011,11,22,04,55,6.00
2011,11,22,04,56,7.40
2011,11,22,04,57,7.10
2011,11,22,04,58,7.00
2011,11,22,04,59,6.10
2011,11,22,05,00,8.50
2011,11,22,05,01,7.30
2011,11,22,05,02,6.10
2011,11,22,05,03,6.10
2011,11,22,05,04,2.90
2011,11,22,05,05,5.10
2011,11,22,05,06,6.70
2011,11,22,05,07,5.60
2011,11,22,05,08,7.10
2011,11,22,05,09,7.50
2011,11,22,05,10,5.60
2011,11,22,05,11,4.80
2011,11,22,05,12,7.50
2011,11,22,05,13,1.90
2011,11,22,05,14,5.40
2011,11,22,05,15,6.50
2011,11,22,05,16,8.70
2011,11,22,05,17,7.10
2011,11,22,05,18,6.90
2011,11,22,05,19,0.20
2011,11,22,05,20,0.10
2011,11,22,05,21,1.20
2011,11,22,05,22,0.00
2011,11,22,05,23,0.10
2011,11,22,05,24,1.10
2011,11,22,05,25,0.30
2011,11,22,05,26,1.10
2011,11,22,05,27,3.70
2011,11,22,05,28,4.10
2011,11,22,05,29,4.70
2011,11,22,05,30,11.30
2011,11,22,05,31,8.40
2011,11,22,05,32,9.00
2011,11,22,05,33,7.70
2011,11,22,05,34,6.30
2011,11,22,05,35,7.20
2011,11,22,05,36,6.80
2011,11,22,05,37,6.20
2011,11,22,05,38,4.40
2011,11,22,05,39,1.90
2011,11,22,05,40,0.00
2011,11,22,05,41,0.00
2011,11,22,05,42,0.10
2011,11,22,05,43,0.10
2011,11,22,05,44,0.00
2011,11,22,05,45,0.00
2011,11,22,05,46,0.10
2011,11,22,05,47,0.20
2011,11,22,05,48,3.60
2011,11,22,05,49,7.60
2011,11,22,05,50,3.80
2011,11,22,05,51,0.90
2011,11,22,05,52,4.20
2011,11,22,05,53,4.40
2011,11,22,05,54,4.40
2011,11,22,05,55,3.40
2011,11,22,05,56,0.00
2011,11,22,05,57,0.70
2011,11,22,05,58,0.70
2011,11,22,05,59,3.40
2011,11,22,06,00,1.20
2011,11,22,06,01,1.90
2011,11,22,06,02,1.60
2011,11,22,06,03,6.80
2011,11,22,06,04,4.50
2011,11,22,06,05,2.40
2011,11,22,06,06,0.60
2011,11,22,06,07,2.30
2011,11,22,06,08,3.50
2011,11,22,06,09,4.10
2011,11,22,06,10,2.60
2011,11,22,06,11,2.20
2011,11,22,06,12,0.00
2011,11,22,06,13,0.40
2011,11,22,06,14,1.90
2011,11,22,06,15,0.50
2011,11,22,06,16,0.00
2011,11,22,06,17,0.00
2011,11,22,06,18,0.00
2011,11,22,06,19,0.00
2011,11,22,06,20,0.00
2011,11,22,06,21,0.20
2011,11,22,06,22,4.10
2011,11,22,06,23,2.30
2011,11,22,06,24,2.80
2011,11,22,06,25,3.90
2011,11,22,06,26,3.50
2011,11,22,06,27,3.70
2011,11,22,06,28,5.80
2011,11,22,06,29,6.10
2011,11,22,06,30,4.10
2011,11,22,06,31,4.90
2011,11,22,06,32,4.00
2011,11,22,06,33,0.60
2011,11,22,06,34,2.90
2011,11,22,06,35,0.80
2011,11,22,06,36,1.90
2011,11,22,06,37,0.50
2011,11,22,06,38,0.20
2011,11,22,06,39,0.20
2011,11,22,06,40,0.80
2011,11,22,06,41,0.30
2011,11,22,06,42,0.00
2011,11,22,06,43,0.70
2011,11,22,06,44,1.20
2011,11,22,06,45,3.70
2011,11,22,06,46,3.90
2011,11,22,06,47,2.20
2011,11,22,06,48,0.00
2011,11,22,06,49,0.10
2011,11,22,06,50,0.20
2011,11,22,06,51,0.50
2011,11,22,06,52,0.30
2011,11,22,06,53,0.80
2011,11,22,06,54,0.10
2011,11,22,06,55,0.60
2011,11,22,06,56,3.40
2011,11,22,06,57,1.80
2011,11,22,06,58,1.40
2011,11,22,06,59,3.30
2011,11,22,07,00,1.00
2011,11,22,07,01,1.30
2011,11,22,07,02,0.40
2011,11,22,07,03,0.10
2011,11,22,07,04,0.10
2011,11,22,07,05,0.00
2011,11,22,07,06,0.00
2011,11,22,07,07,0.10
2011,11,22,07,08,1.30
2011,11,22,07,09,2.10
2011,11,22,07,10,0.70
2011,11,22,07,11,0.10
2011,11,22,07,12,0.00
2011,11,22,07,13,0.10
2011,11,22,07,14,0.00
2011,11,22,07,15,0.10
2011,11,22,07,16,0.50
2011,11,22,07,17,1.80
2011,11,22,07,18,0.00
2011,11,22,07,19,0.00
2011,11,22,07,20,0.00
2011,11,22,07,21,0.10
2011,11,22,07,22,0.00
2011,11,22,07,23,0.00
2011,11,22,07,24,0.00
2011,11,22,07,25,0.00
2011,11,22,07,26,0.00
2011,11,22,07,27,0.10
2011,11,22,07,28,0.00
2011,11,22,07,29,0.00
2011,11,22,07,30,0.00
2011,11,22,07,31,0.00
2011,11,22,07,32,1.50
2011,11,22,07,33,3.40
2011,11,22,07,34,2.10
2011,11,22,07,35,12.40
2011,11,22,07,36,12.30
2011,11,22,07,37,9.80
2011,11,22,07,38,11.70
2011,11,22,07,39,9.40
2011,11,22,07,40,8.40
2011,11,22,07,41,6.70
2011,11,22,07,42,7.10
2011,11,22,07,43,6.60
2011,11,22,07,44,2.60
2011,11,22,07,45,0.80
2011,11,22,07,46,0.10
2011,11,22,07,47,0.00
2011,11,22,07,48,0.10
2011,11,22,07,49,0.10
2011,11,22,07,50,0.10
2011,11,22,07,51,0.10
2011,11,22,07,52,0.90
2011,11,22,07,53,0.00
2011,11,22,07,54,0.00
2011,11,22,07,55,2.90
2011,11,22,07,56,5.00
2011,11,22,07,57,5.50
2011,11,22,07,58,5.10
2011,11,22,07,59,4.60
2011,11,22,08,00,4.90
2011,11,22,08,01,5.30
2011,11,22,08,02,3.20
2011,11,22,08,03,0.20
2011,11,22,08,04,0.70
2011,11,22,08,05,0.50
2011,11,22,08,06,0.00
2011,11,22,08,07,0.10
2011,11,22,08,08,2.80
2011,11,22,08,09,2.40
2011,11,22,08,10,4.50
2011,11,22,08,11,6.40
2011,11,22,08,12,5.20
2011,11,22,08,13,4.20
2011,11,22,08,14,4.60
2011,11,22,08,15,5.50
2011,11,22,08,16,5.10
2011,11,22,08,17,3.60
2011,11,22,08,18,6.30
2011,11,22,08,19,1.40
2011,11,22,08,20,0.30
2011,11,22,08,21,1.60
2011,11,22,08,22,2.70
2011,11,22,08,23,1.50
2011,11,22,08,24,3.40
2011,11,22,08,25,2.50
2011,11,22,08,26,2.10
2011,11,22,08,27,3.40
2011,11,22,08,28,0.60
2011,11,22,08,29,1.30
2011,11,22,08,30,3.40
2011,11,22,08,31,0.20
2011,11,22,08,32,1.40
2011,11,22,08,33,2.60
2011,11,22,08,34,0.20
2011,11,22,08,35,0.00
2011,11,22,08,36,0.00
2011,11,22,08,37,0.00
2011,11,22,08,38,0.20
2011,11,22,08,39,4.20
2011,11,22,08,40,5.40
2011,11,22,08,41,6.20
2011,11,22,08,42,9.30
2011,11,22,08,43,5.80
2011,11,22,08,44,3.60
2011,11,22,08,45,3.30
2011,11,22,08,46,7.10
2011,11,22,08,47,4.50
2011,11,22,08,48,5.70
2011,11,22,08,49,2.90
2011,11,22,08,50,3.30
2011,11,22,08,51,4.20
2011,11,22,08,52,0.30
2011,11,22,08,53,1.50
2011,11,22,08,54,0.50
2011,11,22,08,55,0.20
2011,11,22,08,56,1.10
2011,11,22,08,57,0.20
2011,11,22,08,58,0.90
2011,11,22,08,59,0.00
2011,11,22,09,00,0.20
2011,11,22,09,01,0.00
2011,11,22,09,02,0.10
2011,11,22,09,03,0.10
2011,11,22,09,04,0.00
2011,11,22,09,05,1.00
2011,11,22,09,06,1.10
2011,11,22,09,07,2.90
2011,11,22,09,08,3.40
2011,11,22,09,09,0.00
2011,11,22,09,10,0.50
2011,11,22,09,11,0.40
2011,11,22,09,12,0.80
2011,11,22,09,13,0.10
2011,11,22,09,14,0.40
2011,11,22,09,15,0.10
2011,11,22,09,16,0.00
2011,11,22,09,17,0.00
2011,11,22,09,18,0.00
2011,11,22,09,19,0.00
2011,11,22,09,20,0.00
2011,11,22,09,21,0.00
2011,11,22,09,22,0.00
2011,11,22,09,23,0.10
2011,11,22,09,24,0.00
2011,11,22,09,25,2.50
2011,11,22,09,26,1.90
2011,11,22,09,27,4.30
2011,11,22,09,28,3.40
2011,11,22,09,29,1.90
2011,11,22,09,30,3.20
2011,11,22,09,31,4.50
2011,11,22,09,32,4.30
2011,11,22,09,33,4.50
2011,11,22,09,34,5.40
2011,11,22,09,35,4.80
2011,11,22,09,36,4.80
2011,11,22,09,37,5.70
2011,11,22,09,38,5.30
2011,11,22,09,39,6.10
2011,11,22,09,40,5.30
2011,11,22,09,41,5.00
2011,11,22,09,42,8.50
2011,11,22,09,43,5.60
2011,11,22,09,44,7.70
2011,11,22,09,45,5.10
2011,11,22,09,46,4.50
2011,11,22,09,47,4.20
2011,11,22,09,48,2.60
2011,11,22,09,49,4.00
2011,11,22,09,50,3.10
2011,11,22,09,51,2.80
2011,11,22,09,52,0.80
2011,11,22,09,53,1.60
2011,11,22,09,54,0.20
2011,11,22,09,55,0.10
2011,11,22,09,56,0.00
2011,11,22,09,57,0.00
2011,11,22,09,58,0.70
2011,11,22,09,59,3.10
2011,11,22,10,00,2.20
2011,11,22,10,01,2.30
2011,11,22,10,02,2.60
2011,11,22,10,03,0.10
2011,11,22,10,04,0.00
2011,11,22,10,05,0.00
2011,11,22,10,06,0.00
2011,11,22,10,07,1.50
2011,11,22,10,08,2.90
2011,11,22,10,09,3.30
2011,11,22,10,10,2.90
2011,11,22,10,11,3.10
2011,11,22,10,12,3.80
2011,11,22,10,13,5.40
2011,11,22,10,14,6.30
2011,11,22,10,15,4.70
2011,11,22,10,16,5.10
2011,11,22,10,17,3.90
2011,11,22,10,18,4.30
2011,11,22,10,19,4.40
2011,11,22,10,20,1.50
2011,11,22,10,21,4.30
2011,11,22,10,22,3.40
2011,11,22,10,23,2.30
2011,11,22,10,24,5.80
2011,11,22,10,25,7.00
2011,11,22,10,26,7.30
2011,11,22,10,27,3.00
2011,11,22,10,28,6.80
2011,11,22,10,29,7.30
2011,11,22,10,30,8.50
2011,11,22,10,31,7.40
2011,11,22,10,32,8.60
2011,11,22,10,33,6.90
2011,11,22,10,34,4.50
2011,11,22,10,35,2.90
2011,11,22,10,36,4.10
2011,11,22,10,37,1.40
2011,11,22,10,38,1.20
2011,11,22,10,39,0.80
2011,11,22,10,40,2.10
2011,11,22,10,41,0.10
2011,11,22,10,42,3.80
2011,11,22,10,43,1.80
2011,11,22,10,44,0.00
2011,11,22,10,45,0.00
2011,11,22,10,46,0.00
2011,11,22,10,47,0.40
2011,11,22,10,48,0.20
2011,11,22,10,49,1.40
2011,11,22,10,50,0.80
2011,11,22,10,51,0.00
2011,11,22,10,52,0.00
2011,11,22,10,53,0.20
2011,11,22,10,54,0.00
2011,11,22,10,55,0.20
2011,11,22,10,56,0.00
2011,11,22,10,57,0.10
2011,11,22,10,58,1.00
2011,11,22,10,59,1.90
2011,11,22,11,00,0.40
2011,11,22,11,01,0.70
2011,11,22,11,02,0.20
2011,11,22,11,03,0.50
2011,11,22,11,04,0.40
2011,11,22,11,05,0.00
2011,11,22,11,06,0.00
2011,11,22,11,07,0.00
2011,11,22,11,08,0.00
2011,11,22,11,09,0.00
2011,11,22,11,10,0.00
2011,11,22,11,11,0.00
2011,11,22,11,12,0.00
2011,11,22,11,13,0.10
2011,11,22,11,14,0.00
2011,11,22,11,15,0.00
2011,11,22,11,16,0.10
2011,11,22,11,17,0.10
2011,11,22,11,18,1.20
2011,11,22,11,19,1.90
2011,11,22,11,20,1.40
2011,11,22,11,21,3.20
2011,11,22,11,22,1.00
2011,11,22,11,23,3.40
2011,11,22,11,24,4.80
2011,11,22,11,25,2.80
2011,11,22,11,26,2.50
2011,11,22,11,27,2.10
2011,11,22,11,28,1.10
2011,11,22,11,29,2.40
2011,11,22,11,30,3.10
2011,11,22,11,31,2.00
2011,11,22,11,32,2.80
2011,11,22,11,33,1.10
2011,11,22,11,34,3.40
2011,11,22,11,35,0.60
2011,11,22,11,36,1.40
2011,11,22,11,37,0.10
2011,11,22,11,38,0.10
2011,11,22,11,39,0.00
2011,11,22,11,40,0.40
2011,11,22,11,41,2.90
2011,11,22,11,42,1.20
2011,11,22,11,43,0.10
2011,11,22,11,44,0.00
2011,11,22,11,45,0.00
2011,11,22,11,46,0.10
2011,11,22,11,47,0.00
2011,11,22,11,48,0.00
2011,11,22,11,49,0.10
2011,11,22,11,50,0.30
2011,11,22,11,51,3.10
2011,11,22,11,52,2.60
2011,11,22,11,53,5.90
2011,11,22,11,54,12.30
2011,11,22,11,55,10.50
2011,11,22,11,56,8.30
2011,11,22,11,57,6.00
2011,11,22,11,58,9.80
2011,11,22,11,59,9.70
2011,11,22,12,00,7.20
2011,11,22,12,01,9.30
2011,11,22,12,02,16.00
2011,11,22,12,03,9.30
2011,11,22,12,04,7.80
2011,11,22,12,05,4.20
2011,11,22,12,06,5.80
2011,11,22,12,07,9.80
2011,11,22,12,08,6.90
2011,11,22,12,09,11.50
2011,11,22,12,10,8.40
2011,11,22,12,11,10.50
2011,11,22,12,12,4.30
2011,11,22,12,13,5.10
2011,11,22,12,14,6.10
2011,11,22,12,15,5.70
2011,11,22,12,16,3.40
2011,11,22,12,17,3.90
2011,11,22,12,18,0.90
2011,11,22,12,19,0.50
2011,11,22,12,20,2.80
2011,11,22,12,21,3.80
2011,11,22,12,22,5.90
2011,11,22,12,23,1.10
2011,11,22,12,24,0.10
2011,11,22,12,25,1.20
2011,11,22,12,26,0.30
2011,11,22,12,27,0.00
2011,11,22,12,28,0.10
2011,11,22,12,29,0.10
2011,11,22,12,30,0.80
2011,11,22,12,31,0.00
2011,11,22,12,32,0.10
2011,11,22,12,33,1.80
2011,11,22,12,34,1.60
2011,11,22,12,35,2.20
2011,11,22,12,36,3.20
2011,11,22,12,37,4.00
2011,11,22,12,38,4.60
2011,11,22,12,39,3.70
2011,11,22,12,40,1.20
2011,11,22,12,41,0.10
2011,11,22,12,42,0.10
2011,11,22,12,43,0.30
2011,11,22,12,44,0.00
2011,11,22,12,45,1.80
2011,11,22,12,46,1.50
2011,11,22,12,47,2.00
2011,11,22,12,48,0.50
2011,11,22,12,49,0.40
2011,11,22,12,50,0.00
2011,11,22,12,51,0.00
2011,11,22,12,52,0.00
2011,11,22,12,53,0.20
2011,11,22,12,54,1.10
2011,11,22,12,55,2.50
2011,11,22,12,56,3.30
2011,11,22,12,57,1.20
2011,11,22,12,58,3.70
2011,11,22,12,59,5.10
2011,11,22,13,00,4.40
2011,11,22,13,01,3.70
2011,11,22,13,02,4.80
2011,11,22,13,03,7.10
2011,11,22,13,04,4.90
2011,11,22,13,05,4.40
2011,11,22,13,06,3.60
2011,11,22,13,07,0.00
2011,11,22,13,08,0.10
2011,11,22,13,09,1.10
2011,11,22,13,10,2.40
2011,11,22,13,11,2.60
2011,11,22,13,12,4.10
2011,11,22,13,13,0.20
2011,11,22,13,14,0.00
2011,11,22,13,15,0.00
2011,11,22,13,16,0.00
2011,11,22,13,17,0.00
2011,11,22,13,18,0.10
2011,11,22,13,19,0.00
2011,11,22,13,20,0.00
2011,11,22,13,21,0.00
2011,11,22,13,22,0.00
2011,11,22,13,23,0.00
2011,11,22,13,24,0.10
2011,11,22,13,25,0.00
2011,11,22,13,26,0.10
2011,11,22,13,27,0.20
2011,11,22,13,28,1.90
2011,11,22,13,29,0.70
2011,11,22,13,30,0.20
2011,11,22,13,31,0.10
2011,11,22,13,32,0.00
2011,11,22,13,33,0.00
2011,11,22,13,34,0.10
2011,11,22,13,35,0.00
2011,11,22,13,36,0.10
2011,11,22,13,37,0.20
2011,11,22,13,38,0.70
2011,11,22,13,39,1.50
2011,11,22,13,40,4.90
2011,11,22,13,41,3.30
2011,11,22,13,42,4.80
2011,11,22,13,43,5.30
2011,11,22,13,44,4.20
2011,11,22,13,45,3.70
2011,11,22,13,46,3.80
2011,11,22,13,47,4.10
2011,11,22,13,48,2.80
2011,11,22,13,49,3.10
2011,11,22,13,50,3.30
2011,11,22,13,51,1.10
2011,11,22,13,52,2.20
2011,11,22,13,53,1.70
2011,11,22,13,54,0.00
2011,11,22,13,55,0.10
2011,11,22,13,56,0.20
2011,11,22,13,57,0.00
2011,11,22,13,58,0.00
2011,11,22,13,59,1.10
2011,11,22,14,00,0.20
2011,11,22,14,01,0.00
2011,11,22,14,02,0.00
2011,11,22,14,03,0.00
2011,11,22,14,04,0.00
2011,11,22,14,05,0.00
2011,11,22,14,06,0.10
2011,11,22,14,07,0.10
2011,11,22,14,08,0.10
2011,11,22,14,09,0.20
2011,11,22,14,10,0.00
2011,11,22,14,11,0.00
2011,11,22,14,12,0.00
2011,11,22,14,13,0.00
2011,11,22,14,14,0.10
2011,11,22,14,15,0.00
2011,11,22,14,16,0.10
2011,11,22,14,17,0.00
2011,11,22,14,18,1.00
2011,11,22,14,19,3.10
2011,11,22,14,20,1.80
2011,11,22,14,21,2.10
2011,11,22,14,22,1.10
2011,11,22,14,23,1.50
2011,11,22,14,24,4.20
2011,11,22,14,25,4.60
2011,11,22,14,26,4.40
2011,11,22,14,27,3.90
2011,11,22,14,28,4.00
2011,11,22,14,29,2.80
2011,11,22,14,30,4.30
2011,11,22,14,31,4.40
2011,11,22,14,32,3.30
2011,11,22,14,33,5.10
2011,11,22,14,34,2.80
2011,11,22,14,35,2.80
2011,11,22,14,36,1.50
2011,11,22,14,37,0.30
2011,11,22,14,38,0.00
2011,11,22,14,39,0.20
2011,11,22,14,40,1.40
2011,11,22,14,41,0.20
2011,11,22,14,42,0.00
2011,11,22,14,43,0.10
2011,11,22,14,44,0.00
2011,11,22,14,45,0.00
2011,11,22,14,46,0.00
2011,11,22,14,47,0.10
2011,11,22,14,48,0.00
2011,11,22,14,49,0.30
2011,11,22,14,50,1.30
2011,11,22,14,51,1.20
2011,11,22,14,52,2.20
2011,11,22,14,53,1.50
2011,11,22,14,54,3.40
2011,11,22,14,55,5.60
2011,11,22,14,56,4.70
2011,11,22,14,57,3.20
2011,11,22,14,58,2.80
2011,11,22,14,59,6.20
2011,11,22,15,00,6.10
2011,11,22,15,01,4.70
2011,11,22,15,02,4.10
2011,11,22,15,03,2.10
2011,11,22,15,04,0.80
2011,11,22,15,05,0.70
2011,11,22,15,06,0.00
2011,11,22,15,07,0.00
2011,11,22,15,08,0.10
2011,11,22,15,09,0.10
2011,11,22,15,10,0.60
2011,11,22,15,11,1.20
2011,11,22,15,12,3.50
2011,11,22,15,13,4.10
2011,11,22,15,14,5.10
2011,11,22,15,15,4.20
2011,11,22,15,16,1.80
2011,11,22,15,17,1.70
2011,11,22,15,18,1.20
2011,11,22,15,19,1.50
2011,11,22,15,20,0.10
2011,11,22,15,21,0.10
2011,11,22,15,22,3.10
2011,11,22,15,23,2.00
2011,11,22,15,24,3.90
2011,11,22,15,25,1.60
2011,11,22,15,26,1.20
2011,11,22,15,27,1.10
2011,11,22,15,28,2.00
2011,11,22,15,29,0.80
2011,11,22,15,30,0.50
2011,11,22,15,31,2.10
2011,11,22,15,32,0.30
2011,11,22,15,33,0.10
2011,11,22,15,34,1.20
2011,11,22,15,35,0.20
2011,11,22,15,36,0.10
2011,11,22,15,37,0.40
2011,11,22,15,38,0.10
2011,11,22,15,39,0.00
2011,11,22,15,40,0.10
2011,11,22,15,41,0.00
2011,11,22,15,42,0.00
2011,11,22,15,43,0.10
2011,11,22,15,44,0.10
2011,11,22,15,45,0.00
2011,11,22,15,46,0.00
2011,11,22,15,47,0.00
2011,11,22,15,48,0.00
2011,11,22,15,49,0.00
2011,11,22,15,50,0.10
2011,11,22,15,51,0.10
2011,11,22,15,52,0.00
2011,11,22,15,53,0.00
2011,11,22,15,54,0.00
2011,11,22,15,55,0.20
2011,11,22,15,56,0.10
2011,11,22,15,57,0.00
2011,11,22,15,58,0.10
2011,11,22,15,59,0.10
2011,11,22,16,00,0.10
2011,11,22,16,01,0.00
2011,11,22,16,02,0.00
2011,11,22,16,03,0.00
2011,11,22,16,04,0.00
2011,11,22,16,05,0.00
2011,11,22,16,06,0.00
2011,11,22,16,07,0.00
2011,11,22,16,08,0.00
2011,11,22,16,09,0.00
2011,11,22,16,10,0.00
2011,11,22,16,11,0.00
2011,11,22,16,12,0.00
2011,11,22,16,13,0.10
2011,11,22,16,14,0.80
2011,11,22,16,15,1.10
2011,11,22,16,16,0.40
2011,11,22,16,17,0.10
2011,11,22,16,18,0.00
2011,11,22,16,19,0.10
2011,11,22,16,20,0.00
2011,11,22,16,21,0.00
2011,11,22,16,22,0.00
2011,11,22,16,23,0.00
2011,11,22,16,24,0.00
2011,11,22,16,25,0.00
2011,11,22,16,26,0.00
2011,11,22,16,27,0.00
2011,11,22,16,28,0.00
2011,11,22,16,29,0.10
2011,11,22,16,30,1.20
2011,11,22,16,31,1.50
2011,11,22,16,32,1.60
2011,11,22,16,33,1.60
2011,11,22,16,34,1.60
2011,11,22,16,35,1.60
2011,11,22,16,36,1.60
2011,11,22,16,37,1.60
2011,11,22,16,38,1.40
2011,11,22,16,39,0.00
2011,11,22,16,40,0.00
2011,11,22,16,41,0.10
2011,11,22,16,42,0.10
2011,11,22,16,43,0.20
2011,11,22,16,44,1.80
2011,11,22,16,45,2.20
2011,11,22,16,46,3.70
2011,11,22,16,47,4.50
2011,11,22,16,48,4.20
2011,11,22,16,49,4.30
2011,11,22,16,50,2.70
2011,11,22,16,51,2.70
2011,11,22,16,52,2.60
2011,11,22,16,53,0.20
2011,11,22,16,54,0.10
2011,11,22,16,55,0.20
2011,11,22,16,56,0.00
2011,11,22,16,57,0.00
2011,11,22,16,58,0.00
2011,11,22,16,59,0.00
2011,11,22,17,00,0.00
2011,11,22,17,01,0.10
2011,11,22,17,02,0.30
2011,11,22,17,03,1.00
2011,11,22,17,04,0.60
2011,11,22,17,05,0.00
2011,11,22,17,06,0.00
2011,11,22,17,07,0.10
2011,11,22,17,08,0.00
2011,11,22,17,09,0.10
2011,11,22,17,10,0.00
2011,11,22,17,11,1.10
2011,11,22,17,12,1.10
2011,11,22,17,13,1.10
2011,11,22,17,14,0.50
2011,11,22,17,15,0.00
2011,11,22,17,16,0.00
2011,11,22,17,17,0.00
2011,11,22,17,18,0.00
2011,11,22,17,19,0.00
2011,11,22,17,20,0.50
2011,11,22,17,21,0.30
2011,11,22,17,22,0.10
2011,11,22,17,23,1.30
2011,11,22,17,24,1.00
2011,11,22,17,25,0.20
2011,11,22,17,26,2.60
2011,11,22,17,27,3.40
2011,11,22,17,28,5.10
2011,11,22,17,29,3.50
2011,11,22,17,30,3.50
2011,11,22,17,31,2.70
2011,11,22,17,32,3.90
2011,11,22,17,33,3.90
2011,11,22,17,34,6.40
2011,11,22,17,35,4.40
2011,11,22,17,36,6.40
2011,11,22,17,37,2.10
2011,11,22,17,38,1.80
2011,11,22,17,39,1.50
2011,11,22,17,40,4.10
2011,11,22,17,41,3.10
2011,11,22,17,42,5.70
2011,11,22,17,43,4.60
2011,11,22,17,44,4.80
2011,11,22,17,45,5.60
2011,11,22,17,46,3.70
2011,11,22,17,47,4.80
2011,11,22,17,48,6.70
2011,11,22,17,49,4.50
2011,11,22,17,50,4.80
2011,11,22,17,51,5.30
2011,11,22,17,52,5.60
2011,11,22,17,53,3.50
2011,11,22,17,54,3.10
2011,11,22,17,55,5.30
2011,11,22,17,56,6.30
2011,11,22,17,57,3.60
2011,11,22,17,58,1.50
2011,11,22,17,59,6.00